Wind_Speed
26 26 26 25 24 24 25 25 24 24 24 25 25 25 25 26 27 28 29 30 30 31 31 31 32 33 34 35 37 38 39 41 42 44 45 46 47 48 49 49 50 51 51
25 25 25 25 25 25 25 25 24 24 24 24 24 24 25 26 26 27 27 28 28 28 29 30 31 33 34 35 36 38 39 41 42 43 44 46 47 47 48 48 49 49 49
25 26 26 26 25 25 25 25 25 25 24 24 24 25 25 25 26 26 26 27 27 28 29 30 32 33 34 35 37 38 39 40 41 42 43 44 44 45 45 46 46 46 46
26 26 26 27 27 27 26 26 26 26 25 25 25 26 26 26 27 27 27 28 27 28 30 31 32 33 34 35 37 38 39 40 40 41 41 41 42 42 42 42 42 42 41
26 26 26 26 27 27 27 26 27 27 27 27 27 27 27 27 27 27 28 28 28 29 30 31 32 33 34 35 36 36 37 38 38 38 38 38 39 39 38 38 37 35 35
24 25 26 26 26 25 25 26 26 26 27 27 27 27 27 27 27 27 27 27 27 28 29 31 31 32 33 33 34 34 35 35 35 35 35 35 35 34 34 33 31 30 29
23 24 24 25 26 25 25 24 25 25 25 25 25 25 25 25 25 26 26 27 27 27 28 29 30 31 31 31 32 32 32 32 32 31 31 30 29 29 29 28 27 26 24
23 24 23 24 24 24 24 25 24 24 24 25 25 24 25 25 24 24 24 25 26 26 27 28 28 28 28 29 29 29 29 29 28 27 27 26 25 24 24 23 23 21 20
21 21 22 22 22 22 23 24 23 23 23 23 23 23 23 23 22 22 23 24 24 25 26 26 26 26 26 27 27 26 26 26 24 24 23 23 22 22 22 21 19 17 16
18 19 19 20 20 20 20 20 21 21 21 20 20 20 20 20 21 21 22 22 23 24 24 24 24 24 24 24 24 24 23 23 22 21 20 20 20 20 19 18 17 15 14
16 16 16 17 17 17 18 19 19 19 19 19 19 19 19 19 20 20 21 21 22 22 22 22 21 21 21 21 21 21 21 20 19 19 19 19 18 18 17 15 14 12 11
14 14 15 15 15 16 17 17 17 17 18 18 17 17 18 18 18 19 19 19 19 19 19 19 19 19 19 19 19 19 18 18 18 18 18 17 17 16 14 13 11 10 9
13 13 14 14 14 14 15 15 15 15 15 15 16 16 16 16 16 17 17 17 17 17 17 17 17 18 18 17 17 17 16 16 17 17 16 15 15 14 13 11 9 9 8
12 12 12 12 12 12 12 13 13 13 13 14 14 14 14 14 15 15 15 15 15 15 16 16 16 16 16 16 16 16 16 16 15 15 14 14 13 12 11 9 8 7 6
10 10 11 11 11 11 11 11 11 11 11 11 11 12 12 13 13 13 13 14 14 14 14 14 15 15 15 15 15 15 14 14 14 14 13 13 11 10 9 7 6 5 4
9 9 9 9 9 9 9 9 9 9 9 10 10 11 11 12 11 11 12 12 13 13 13 13 13 13 13 13 13 13 13 13 12 12 11 11 10 8 7 6 5 3 3
6 7 7 7 8 8 8 8 8 8 9 9 9 10 10 10 10 10 10 11 11 11 11 12 12 12 12 12 12 12 12 11 11 11 10 9 8 7 5 4 3 2 2
4 5 5 6 6 7 7 7 7 8 8 7 7 8 8 8 9 8 8 9 9 10 10 11 11 11 11 11 11 11 11 10 10 9 9 8 6 5 3 3 2 1 1
3 3 3 4 4 5 5 5 6 6 6 6 6 6 6 6 6 7 7 7 8 9 9 10 10 10 10 10 10 10 9 9 8 7 7 5 4 3 2 2 1 2 2
1 1 2 1 1 1 2 3 3 3 4 4 4 4 5 5 5 5 6 7 7 8 8 9 9 9 9 9 9 8 8 7 6 6 5 4 3 2 2 1 2 2 3
1 1 2 2 1 1 1 1 1 2 3 3 3 3 3 3 4 5 5 6 6 7 8 8 8 8 8 8 8 7 6 6 5 4 3 3 2 2 2 2 2 3 3
4 4 4 3 3 3 3 2 3 3 3 3 3 3 3 3 4 5 5 6 7 7 8 8 8 7 7 7 6 6 6 5 4 3 3 3 2 3 3 3 4 4 4
7 6 6 5 5 5 5 5 5 5 5 5 5 5 5 5 5 5 6 7 7 7 8 8 8 8 7 7 6 6 5 5 4 3 3 3 3 4 4 4 4 4 4
9 9 9 8 7 7 7 7 6 6 6 6 6 7 7 7 7 7 7 7 8 8 9 9 9 9 8 8 7 6 6 5 5 5 5 5 5 4 4 4 4 4 4
13 13 12 11 10 10 9 9 9 8 8 8 8 8 8 8 8 8 8 9 9 9 10 10 10 10 10 10 9 8 8 7 6 6 6 6 5 5 5 4 4 4 4
16 15 14 13 13 12 11 11 11 10 10 10 10 9 9 9 9 10 10 10 10 11 11 11 11 11 11 11 11 10 10 9 9 8 7 7 6 6 5 5 4 4 4
Wind_Direction
254 256 259 262 263 264 266 268 270 271 270 269 268 267 266 267 269 270 271 271 270 270 269 269 271 274 277 280 283 284 286 287 289 289 291 292 293 293 294 294 295 295 296
257 257 259 261 263 263 264 267 267 267 267 268 269 269 270 271 273 274 274 274 272 272 273 275 277 280 281 282 284 286 288 289 290 291 292 293 294 295 296 297 297 297 298
259 259 259 261 261 261 262 264 266 266 266 268 270 271 271 272 274 275 275 276 276 276 278 279 281 282 283 285 286 288 289 290 291 293 294 294 296 297 298 299 300 300 301
257 258 259 261 260 260 262 263 263 264 265 267 269 270 271 272 273 275 277 279 279 279 280 282 283 285 287 288 289 290 291 292 294 295 296 297 298 299 299 301 302 303 304
256 257 257 258 257 259 261 262 262 263 265 267 268 269 270 272 274 276 278 278 279 280 282 284 286 287 289 291 292 293 294 295 297 298 298 299 300 300 301 303 305 307 308
258 258 259 260 259 259 261 262 261 260 262 265 268 269 271 272 275 277 278 280 280 281 285 286 288 290 293 294 295 296 297 298 299 300 301 302 303 304 305 306 308 309 310
261 261 259 260 260 261 262 262 261 262 264 267 269 271 272 275 278 278 278 279 281 284 287 289 291 293 295 296 297 298 299 300 301 303 304 306 307 309 311 311 310 311 312
259 260 260 260 261 261 262 263 263 263 266 268 270 272 274 275 276 276 278 279 283 286 289 291 293 294 295 297 298 299 300 301 302 304 306 308 310 312 314 315 316 315 317
260 259 259 260 261 261 262 262 260 262 265 267 269 272 273 274 274 275 278 281 285 288 290 293 294 295 297 298 299 301 302 303 304 307 309 311 311 313 315 315 316 318 319
262 260 258 257 257 259 259 257 257 260 264 267 268 270 271 272 274 276 279 283 287 290 292 293 295 296 298 300 301 302 304 305 306 308 310 312 313 315 315 316 317 317 319
265 262 261 260 258 259 260 259 261 265 267 266 265 268 270 272 276 279 283 286 289 291 293 295 296 298 300 302 303 304 306 307 308 309 311 313 315 316 316 317 317 317 318
264 262 261 260 261 264 263 261 264 266 267 265 266 268 269 273 277 281 285 288 290 291 293 296 298 300 302 303 305 307 308 310 312 312 313 314 316 318 318 319 317 317 320
263 261 260 260 260 261 260 262 266 268 269 270 270 270 270 274 278 283 286 289 290 292 294 296 299 302 304 306 308 309 311 313 314 315 315 316 318 321 322 323 322 324 327
260 260 260 260 259 260 263 264 265 267 269 270 271 270 271 275 279 283 286 289 291 293 296 298 301 303 305 307 308 310 312 315 316 318 317 317 320 323 324 325 326 327 329
267 264 262 262 262 261 261 261 264 267 271 272 272 272 275 278 281 284 288 290 292 295 296 298 301 304 306 308 309 310 312 314 316 318 320 320 321 323 323 325 330 334 338
266 264 262 261 261 262 263 265 267 268 270 272 273 276 279 281 284 287 290 292 295 297 300 302 304 306 309 310 311 313 315 317 318 320 321 321 321 322 324 326 329 337 350
268 263 261 261 261 263 266 267 267 269 271 273 274 276 279 282 285 289 293 297 300 303 306 307 308 309 311 313 314 316 317 317 318 319 321 323 323 324 327 332 335 341 9
266 260 260 261 260 261 263 265 268 272 274 274 275 280 284 288 292 295 299 303 307 310 311 311 313 314 316 317 319 319 318 318 319 320 322 324 326 327 332 343 353 10 40
267 267 269 270 268 264 263 265 270 274 276 277 280 286 291 295 298 303 309 312 314 316 317 317 317 319 321 322 323 324 323 323 325 326 327 330 335 339 344 1 39 58 69
280 294 307 304 289 270 262 268 278 285 289 292 295 299 303 306 309 314 318 320 323 325 326 325 324 324 326 328 328 329 330 331 333 334 336 340 348 356 8 48 85 85 83
64 59 51 51 50 37 12 344 329 330 332 333 329 323 321 323 328 333 334 336 337 337 337 335 334 333 332 333 334 336 338 339 339 343 350 359 13 31 64 92 102 100 91
70 68 65 61 60 61 61 57 48 38 29 24 24 23 15 5 360 357 354 354 353 351 349 348 349 349 348 347 347 348 350 353 359 10 26 32 44 67 86 95 99 97 89
69 68 69 69 70 72 73 68 58 52 50 50 46 43 38 31 25 22 19 16 15 11 9 9 9 8 5 5 6 7 8 14 25 38 51 61 69 78 86 90 91 87 83
68 69 71 71 71 73 72 68 64 62 62 60 58 55 51 47 43 38 34 32 29 26 25 25 24 23 23 24 25 27 30 37 48 58 66 75 79 81 83 84 79 78 75
70 71 72 73 74 74 73 70 69 68 67 67 64 60 56 52 49 46 44 40 38 37 36 35 35 36 38 40 42 44 47 52 59 65 71 75 78 79 76 73 68 64 58
73 72 71 72 72 73 72 72 72 72 72 69 65 63 60 57 55 52 50 48 45 44 43 42 43 44 46 47 49 52 55 59 62 65 68 71 71 69 65 61 52 41 28
Height
5755 5758 5760 5762 5764 5766 5768 5770 5772 5773 5773 5774 5774 5775 5776 5776 5777 5777 5778 5778 5778 5779 5779 5779 5779 5778 5778 5777 5776 5774 5772 5770 5768 5765 5762 5759 5756 5752 5748 5744 5740 5736 5732
5750 5752 5754 5756 5759 5761 5762 5764 5765 5766 5767 5768 5769 5769 5770 5770 5771 5771 5771 5771 5772 5772 5772 5772 5772 5771 5770 5769 5767 5765 5763 5761 5758 5755 5752 5748 5745 5741 5737 5733 5729 5725 5720
5745 5747 5749 5751 5753 5754 5756 5758 5759 5760 5761 5762 5763 5763 5764 5764 5765 5765 5765 5765 5765 5765 5765 5765 5764 5763 5762 5760 5759 5756 5754 5751 5748 5745 5742 5738 5734 5730 5726 5722 5717 5713 5709
5739 5741 5742 5744 5746 5748 5750 5751 5753 5754 5755 5756 5757 5757 5758 5758 5759 5759 5759 5759 5758 5758 5758 5757 5757 5756 5754 5752 5750 5747 5745 5742 5738 5735 5732 5728 5724 5720 5716 5712 5708 5703 5698
5734 5735 5736 5738 5740 5741 5743 5744 5746 5747 5749 5750 5750 5751 5751 5752 5752 5752 5752 5752 5752 5751 5751 5750 5749 5748 5746 5744 5741 5738 5736 5732 5729 5726 5723 5719 5715 5711 5707 5703 5699 5694 5690
5727 5729 5730 5731 5733 5735 5736 5738 5739 5741 5742 5743 5744 5744 5745 5745 5745 5745 5745 5745 5745 5744 5744 5743 5741 5740 5738 5735 5733 5730 5727 5724 5721 5717 5714 5710 5706 5703 5699 5695 5691 5688 5684
5721 5722 5724 5725 5727 5728 5730 5731 5733 5734 5735 5736 5737 5737 5738 5738 5738 5739 5739 5739 5738 5737 5737 5736 5734 5732 5730 5728 5725 5722 5719 5716 5713 5710 5706 5703 5700 5696 5692 5688 5685 5681 5678
5716 5717 5718 5719 5721 5722 5723 5725 5726 5728 5729 5730 5730 5731 5732 5732 5732 5732 5732 5732 5732 5731 5730 5729 5727 5725 5723 5720 5718 5715 5712 5709 5706 5703 5700 5697 5693 5690 5687 5684 5680 5677 5673
5710 5711 5712 5713 5715 5716 5717 5719 5720 5722 5723 5724 5724 5725 5725 5726 5726 5726 5726 5726 5726 5725 5723 5722 5720 5718 5716 5714 5711 5709 5706 5703 5700 5697 5694 5691 5688 5685 5682 5679 5676 5673 5670
5705 5706 5707 5708 5709 5711 5712 5713 5715 5716 5717 5718 5719 5719 5720 5720 5721 5721 5721 5720 5720 5719 5717 5716 5714 5712 5710 5707 5705 5703 5700 5698 5695 5692 5689 5686 5683 5680 5678 5675 5673 5670 5668
5700 5701 5702 5703 5705 5706 5707 5709 5710 5711 5712 5713 5713 5714 5715 5715 5715 5715 5715 5715 5714 5713 5711 5710 5708 5706 5704 5702 5700 5698 5695 5693 5690 5687 5685 5682 5679 5677 5674 5672 5669 5667 5665
5697 5697 5698 5699 5700 5701 5703 5704 5705 5706 5707 5707 5708 5709 5709 5710 5710 5710 5710 5709 5709 5708 5706 5705 5703 5701 5700 5698 5695 5693 5691 5688 5686 5683 5681 5679 5676 5674 5672 5669 5667 5665 5663
5692 5693 5694 5695 5696 5697 5698 5699 5700 5701 5702 5703 5703 5704 5705 5705 5705 5705 5705 5705 5704 5703 5702 5700 5699 5697 5695 5693 5691 5689 5687 5685 5682 5680 5678 5675 5673 5671 5669 5667 5665 5663 5661
5689 5690 5691 5691 5692 5693 5695 5696 5697 5697 5698 5699 5699 5700 5701 5701 5701 5701 5701 5700 5699 5698 5697 5696 5695 5693 5691 5689 5687 5685 5683 5681 5679 5677 5675 5673 5671 5669 5667 5665 5664 5662 5661
5686 5686 5687 5688 5689 5690 5691 5692 5693 5694 5694 5695 5696 5696 5697 5697 5697 5697 5697 5696 5695 5695 5693 5692 5691 5689 5688 5686 5684 5682 5680 5678 5676 5674 5672 5670 5668 5667 5665 5664 5662 5661 5660
5683 5684 5684 5686 5687 5688 5689 5689 5690 5691 5691 5692 5693 5693 5694 5694 5694 5693 5693 5693 5692 5691 5690 5689 5688 5686 5685 5683 5681 5679 5677 5676 5674 5672 5670 5668 5666 5665 5664 5662 5661 5661 5660
5681 5682 5682 5683 5684 5685 5686 5687 5688 5688 5689 5689 5690 5690 5691 5691 5691 5690 5690 5690 5689 5688 5687 5686 5684 5683 5682 5680 5678 5676 5675 5673 5671 5670 5668 5666 5665 5664 5662 5662 5661 5660 5659
5680 5680 5681 5682 5683 5684 5684 5685 5686 5686 5687 5687 5688 5688 5688 5688 5688 5688 5688 5687 5687 5686 5684 5683 5682 5680 5679 5677 5676 5674 5672 5671 5669 5668 5666 5665 5664 5663 5662 5661 5660 5660 5659
5680 5680 5680 5681 5681 5682 5683 5683 5684 5685 5685 5686 5686 5686 5686 5686 5686 5686 5686 5685 5684 5684 5682 5681 5680 5678 5677 5675 5674 5672 5671 5669 5668 5666 5665 5664 5663 5662 5661 5661 5660 5660 5660
5679 5680 5680 5680 5681 5681 5682 5682 5683 5684 5684 5684 5685 5685 5685 5685 5685 5685 5684 5684 5683 5682 5681 5679 5678 5677 5675 5674 5672 5671 5669 5668 5666 5665 5664 5663 5662 5662 5661 5661 5661 5660 5660
5680 5680 5680 5681 5681 5681 5682 5682 5683 5683 5683 5683 5684 5684 5684 5684 5684 5684 5683 5683 5682 5681 5680 5678 5677 5675 5674 5672 5671 5670 5668 5667 5666 5665 5664 5663 5662 5662 5661 5661 5661 5661 5661
5681 5681 5681 5681 5682 5682 5682 5683 5683 5683 5684 5684 5684 5684 5684 5684 5684 5683 5683 5682 5681 5680 5679 5678 5676 5675 5673 5672 5670 5669 5668 5666 5665 5664 5664 5663 5663 5662 5662 5662 5662 5662 5662
5683 5683 5683 5683 5683 5683 5684 5684 5684 5684 5684 5684 5685 5685 5684 5684 5684 5684 5683 5683 5682 5681 5679 5678 5676 5674 5673 5671 5670 5669 5668 5666 5666 5665 5664 5664 5664 5664 5663 5663 5663 5663 5663
5686 5685 5685 5685 5685 5685 5685 5686 5686 5686 5686 5686 5686 5686 5686 5686 5685 5685 5684 5684 5683 5682 5680 5678 5677 5675 5673 5672 5671 5669 5668 5667 5666 5666 5665 5665 5665 5665 5665 5665 5665 5664 5664
5689 5688 5688 5688 5688 5688 5688 5688 5688 5688 5688 5688 5688 5688 5688 5688 5687 5687 5686 5685 5684 5683 5682 5680 5678 5677 5675 5674 5672 5671 5670 5669 5668 5668 5667 5667 5667 5667 5667 5667 5666 5666 5666
5693 5692 5692 5692 5692 5691 5691 5691 5691 5691 5691 5691 5691 5691 5690 5690 5690 5689 5688 5687 5686 5685 5684 5682 5681 5679 5678 5676 5675 5673 5672 5671 5671 5670 5670 5669 5669 5669 5669 5668 5668 5668 5667